Regional Weather Roundup
Issued by NWS New Orleans/Baton Rouge, LA

Home | Current Version | Previous Version | Text Only | Print | Product List | Glossary On
Versions: 1 2 3 4 5 6 7 8 9 10 11 12 13 14 15 16 17 18 19 20 21 22 23 24 25 26 27 28 29 30 31 32 33 34 35 36 37 38 39 40 41 42 43 44 45 46 47 48 49 50
000
ASUS44 KLIX 032111
RWRLIX
NEW ORLEANS REGIONAL WEATHER ROUNDUP
NATIONAL WEATHER SERVICE NEW ORLEANS LA
400 PM CDT WED JUN 03 2015

NOTE: "FAIR" INDICATES FEW OR NO CLOUDS BELOW 12,000 FEET WITH NO
      SIGNIFICANT WEATHER AND/OR OBSTRUCTIONS TO VISIBILITY.
      SKY/WX - SKY CONDITION AND SIGNIFICANT WEATHER.
      TMP - AIR TEMPERATURE.     DP    - DEWPOINT TEMPERATURE.
      RH  - RELATIVE HUMIDITY.   PRES  - PRESSURE.
      HI  - HEAT INDEX.          WCI   - WIND CHILL INDEX.

*  THESE STATIONS ARE NOT NWS OR FAA STATIONS AND ARE NOT UNDER
   NWS QUALITY CONTROL.

LAZ038-040-048-061>063-065>067-069-032200-
SOUTHEAST LOUISIANA

CITY           SKY/WX    TMP DP  RH WIND       PRES   REMARKS
N.O. AUDUBON   NOT AVBL
N.O. INTL ARPT MOSUNNY   88  62  41 N9        29.90F
N.O. LAKEFRONT MOSUNNY   88  67  49 NW6       29.90F
SLIDELL        PTSUNNY   88  68  51 CALM      29.89F
BATON ROUGE    MOSUNNY   87  64  46 CALM      29.91F
BOOTHVILLE     SUNNY     88  66  48 VRB5      29.90F
BELLE CHASSE   PTSUNNY   87  62  43 E5        29.89F
BOGALUSA*        N/A     86  62  44 CALM      29.92F
GALLIANO*      CLEAR     89  65  44 S7        29.90F
NEW ROADS*       N/A    N/A N/A N/A CALM      29.92F
GONZALES*        N/A     88  65  47 CALM      29.89F
HAMMOND*       SUNNY     90  61  37 N3        29.92S
HOUMA*         MOSUNNY   82  70  65 S5        29.90F
PORT FOURCHON* CLEAR     86  63  45 SW8       29.91F

$$

MSZ070-080>082-032200-
SOUTHERN MISSISSIPPI

CITY           SKY/WX    TMP DP  RH WIND       PRES   REMARKS
MCCOMB         MOSUNNY   84  62  47 N6        29.93F
GULFPORT       MOSUNNY   85  69  58 S6        29.88F
BILOXI         SUNNY     85  70  60 S9        29.88F
PASCAGOULA     LGT RAIN  81  73  76 W6        29.89F
STENNIS ARPT*  PTSUNNY   84  66  54 MISG      29.89F

$$

COASTAL OBSERVATIONS
LAKE AND NEARSHORE STATIONS

STATION/POSITION TIME  TEMP    WIND        PRES    WAVE
                       AIR SEA DIR/SP/G            HT/PER
                 (UTC) (F)     (DEG/KT/KT) (MB)    (FT/S)
PASCAGOULA       2000   83     200/  7/ 10 1012.3
WAVELAND YACHT   2000   81 84  160/  9/ 10 1012.8
GRAND ISLE       2000   85 85  180/  5/  7 1012.8
SOUTHWEST PASS   2000   90 76  300/  3/  6 1013.3
NEW CANAL        2000   83 84   10/  2/  5 1012.1
SHELL BEACH      2000   83 86  350/  5/  7 1012.2

OFFSHORE STATIONS

STATION/POSITION TIME  TEMP    WIND        PRES    WAVE
                       AIR SEA DIR/SP/G            HT/PER
                 (UTC) (F)     (DEG/KT/KT) (MB)    (FT/S)
64 S DAUPHIN ISL 2050   83 87  340/  2/  2 1012.5    1

$$




USA.gov is the U.S. government's official web portal to all federal, state and local government web resources and services.